Terug naar catalogus

COSMOS 1275 DEB

ActiefPO
NORAD 12722·DEBRIS·🇷🇺 Russia

Gelanceerd Jun 4, 1981 vanaf Plesetsk Cosmodrome

Loading…

Volgende Passages (komende 24 uur)

TLE

VersSource: Space-Track

Epoch: Sep 13, 2026, 08:13 UTC

1 12722U 81053BP  26256.34279294  .00000505  00000-0  39341-3 0  9995
2 12722  82.9046   5.3675 0062574 324.0666  35.6297 13.89701154271115

Volg COSMOS 1275 DEB in realtime met AllMySat

Download on the App Store